contact:dominique.lefevre@mio.osupytheas.fr, maurice.libes@osupytheas.fr, didier.mallarino@osupytheas.fr
Project:EMSO http://www.emso-fr.org/EMSO-France
Depth: 2436.0 m
Title:EMSO Ligure Ouest : Data MII capteur MICROCAT
DateTime_Computer,Latitude,Longitude,Temperature,Conductivity,Pressure,DateTime_Instrument
DateTime_Computer,Latitude,Longitude,degC,S m-1,dbar,DateTime_Instrument
2017-10-02T00:00:02Z,42.805,6.029,13.2951,4.60038,2471.889,2017-10-02T02:01:26Z
2017-10-02T00:01:37Z,42.805,6.029,13.2957,4.60040,2471.889,2017-10-02T02:03:01Z
2017-10-02T00:03:12Z,42.805,6.029,13.2966,4.60060,2471.866,2017-10-02T02:04:35Z
2017-10-02T00:04:47Z,42.805,6.029,13.2951,4.60046,2471.866,2017-10-02T02:06:10Z
2017-10-02T00:06:22Z,42.805,6.029,13.2952,4.60053,2471.889,2017-10-02T02:07:45Z
2017-10-02T00:07:56Z,42.805,6.029,13.2949,4.60031,2471.874,2017-10-02T02:09:20Z
2017-10-02T00:09:31Z,42.805,6.029,13.2944,4.60019,2471.889,2017-10-02T02:10:55Z
2017-10-02T00:11:06Z,42.805,6.029,13.2947,4.60015,2471.852,2017-10-02T02:12:30Z
2017-10-02T00:12:41Z,42.805,6.029,13.2954,4.60025,2471.866,2017-10-02T02:14:04Z
2017-10-02T00:14:16Z,42.805,6.029,13.2959,4.60023,2471.866,2017-10-02T02:15:39Z
2017-10-02T00:15:51Z,42.805,6.029,13.2964,4.60002,2471.912,2017-10-02T02:17:14Z
2017-10-02T00:17:25Z,42.805,6.029,13.2969,4.59985,2471.866,2017-10-02T02:18:49Z
2017-10-02T00:19:00Z,42.805,6.029,13.2971,4.59992,2471.866,2017-10-02T02:20:24Z
2017-10-02T00:20:35Z,42.805,6.029,13.2980,4.59984,2471.897,2017-10-02T02:21:59Z
2017-10-02T00:22:10Z,42.805,6.029,13.2982,4.59978,2471.866,2017-10-02T02:23:33Z
2017-10-02T00:23:45Z,42.805,6.029,13.2989,4.59986,2471.912,2017-10-02T02:25:08Z
2017-10-02T00:25:20Z,42.805,6.029,13.2946,4.59980,2471.866,2017-10-02T02:26:43Z
2017-10-02T00:26:54Z,42.805,6.029,13.2947,4.59979,2471.889,2017-10-02T02:28:18Z
2017-10-02T00:28:29Z,42.805,6.029,13.2947,4.59974,2471.912,2017-10-02T02:29:53Z
2017-10-02T00:30:04Z,42.805,6.029,13.2949,4.60015,2471.912,2017-10-02T02:31:28Z
2017-10-02T00:31:39Z,42.805,6.029,13.2935,4.59995,2471.912,2017-10-02T02:33:02Z
2017-10-02T00:33:14Z,42.805,6.029,13.2939,4.59990,2471.852,2017-10-02T02:34:37Z
2017-10-02T00:34:49Z,42.805,6.029,13.2942,4.59995,2471.889,2017-10-02T02:36:12Z
2017-10-02T00:36:23Z,42.805,6.029,13.2939,4.59992,2471.889,2017-10-02T02:37:47Z
2017-10-02T00:37:58Z,42.805,6.029,13.2938,4.60000,2471.852,2017-10-02T02:39:22Z
2017-10-02T00:39:33Z,42.805,6.029,13.2932,4.59995,2471.889,2017-10-02T02:40:57Z
2017-10-02T00:41:08Z,42.805,6.029,13.2935,4.59991,2471.866,2017-10-02T02:42:31Z
2017-10-02T00:42:43Z,42.805,6.029,13.2945,4.60046,2471.874,2017-10-02T02:44:06Z
2017-10-02T00:44:18Z,42.805,6.029,13.2939,4.60009,2471.889,2017-10-02T02:45:41Z
2017-10-02T00:45:52Z,42.805,6.029,13.2940,4.60005,2471.919,2017-10-02T02:47:16Z
2017-10-02T00:47:27Z,42.805,6.029,13.2940,4.59992,2471.897,2017-10-02T02:48:51Z
2017-10-02T00:49:02Z,42.805,6.029,13.2939,4.59990,2471.874,2017-10-02T02:50:26Z
2017-10-02T00:50:37Z,42.805,6.029,13.2941,4.59983,2471.912,2017-10-02T02:52:00Z
2017-10-02T00:52:12Z,42.805,6.029,13.2939,4.59984,2471.866,2017-10-02T02:53:35Z
2017-10-02T00:53:47Z,42.805,6.029,13.2936,4.59980,2471.912,2017-10-02T02:55:10Z
2017-10-02T00:55:21Z,42.805,6.029,13.2934,4.59975,2471.889,2017-10-02T02:56:45Z
2017-10-02T00:56:56Z,42.805,6.029,13.2939,4.59975,2471.912,2017-10-02T02:58:20Z
2017-10-02T00:58:31Z,42.805,6.029,13.2939,4.59984,2471.889,2017-10-02T02:59:55Z
2017-10-02T01:00:06Z,42.805,6.029,13.2939,4.59987,2471.874,2017-10-02T03:01:29Z
2017-10-02T01:01:41Z,42.805,6.029,13.2936,4.59991,2471.889,2017-10-02T03:03:04Z
2017-10-02T01:03:15Z,42.805,6.029,13.2934,4.59995,2471.889,2017-10-02T03:04:39Z
2017-10-02T01:04:50Z,42.805,6.029,13.2938,4.59987,2471.927,2017-10-02T03:06:14Z
2017-10-02T01:06:25Z,42.805,6.029,13.2938,4.60041,2471.889,2017-10-02T03:07:49Z
2017-10-02T01:08:00Z,42.805,6.029,13.2933,4.60009,2471.912,2017-10-02T03:09:24Z
2017-10-02T01:09:35Z,42.805,6.029,13.2958,4.59994,2471.874,2017-10-02T03:10:58Z
2017-10-02T01:11:10Z,42.805,6.029,13.2966,4.59983,2471.912,2017-10-02T03:12:33Z
2017-10-02T01:12:44Z,42.805,6.029,13.2958,4.59993,2471.889,2017-10-02T03:14:08Z
2017-10-02T01:14:19Z,42.805,6.029,13.2976,4.59985,2471.897,2017-10-02T03:15:43Z
2017-10-02T01:15:54Z,42.805,6.029,13.2961,4.59984,2471.889,2017-10-02T03:17:18Z
2017-10-02T01:17:29Z,42.805,6.029,13.3010,4.59989,2471.889,2017-10-02T03:18:52Z
2017-10-02T01:19:04Z,42.805,6.029,13.2969,4.60022,2471.866,2017-10-02T03:20:27Z
2017-10-02T01:20:39Z,42.805,6.029,13.2992,4.59973,2471.889,2017-10-02T03:22:02Z
2017-10-02T01:22:13Z,42.805,6.029,13.2974,4.59986,2471.866,2017-10-02T03:23:37Z
2017-10-02T01:23:48Z,42.805,6.029,13.2991,4.59995,2471.866,2017-10-02T03:25:12Z
2017-10-02T01:25:23Z,42.805,6.029,13.2970,4.59999,2471.874,2017-10-02T03:26:47Z
2017-10-02T01:26:58Z,42.805,6.029,13.2951,4.59984,2471.889,2017-10-02T03:28:21Z
2017-10-02T01:28:33Z,42.805,6.029,13.2942,4.59978,2471.912,2017-10-02T03:29:56Z
2017-10-02T01:30:08Z,42.805,6.029,13.2954,4.59991,2471.934,2017-10-02T03:31:31Z
2017-10-02T01:31:42Z,42.805,6.029,13.2954,4.59994,2471.874,2017-10-02T03:33:06Z
2017-10-02T01:33:17Z,42.805,6.029,13.2986,4.59982,2471.912,2017-10-02T03:34:41Z
2017-10-02T01:34:52Z,42.805,6.029,13.2977,4.59998,2471.912,2017-10-02T03:36:16Z
2017-10-02T01:36:27Z,42.805,6.029,13.2970,4.59993,2471.889,2017-10-02T03:37:50Z
2017-10-02T01:38:02Z,42.805,6.029,13.2967,4.59998,2471.889,2017-10-02T03:39:25Z
2017-10-02T01:39:37Z,42.805,6.029,13.2996,4.60014,2471.912,2017-10-02T03:41:00Z
2017-10-02T01:41:11Z,42.805,6.029,13.2958,4.59992,2471.934,2017-10-02T03:42:35Z
2017-10-02T01:42:46Z,42.805,6.029,13.2975,4.59982,2471.889,2017-10-02T03:44:10Z
2017-10-02T01:44:21Z,42.805,6.029,13.2979,4.60005,2471.912,2017-10-02T03:45:45Z
2017-10-02T01:45:56Z,42.805,6.029,13.2982,4.60023,2471.912,2017-10-02T03:47:19Z
2017-10-02T01:47:31Z,42.805,6.029,13.2987,4.60010,2471.889,2017-10-02T03:48:54Z
2017-10-02T01:49:06Z,42.805,6.029,13.2985,4.60048,2471.889,2017-10-02T03:50:29Z
2017-10-02T01:50:40Z,42.805,6.029,13.2987,4.60040,2471.912,2017-10-02T03:52:04Z
2017-10-02T01:52:15Z,42.805,6.029,13.2993,4.60044,2471.912,2017-10-02T03:53:39Z
2017-10-02T01:53:50Z,42.805,6.029,13.3002,4.59998,2471.897,2017-10-02T03:55:14Z
2017-10-02T01:55:25Z,42.805,6.029,13.2992,4.60020,2471.912,2017-10-02T03:56:48Z
2017-10-02T01:57:00Z,42.805,6.029,13.2984,4.60013,2471.912,2017-10-02T03:58:23Z
2017-10-02T01:58:35Z,42.805,6.029,13.2994,4.60025,2471.912,2017-10-02T03:59:58Z
2017-10-02T02:00:09Z,42.805,6.029,13.3000,4.60037,2471.934,2017-10-02T04:01:33Z
2017-10-02T02:01:44Z,42.805,6.029,13.2983,4.60025,2471.889,2017-10-02T04:03:08Z
2017-10-02T02:03:19Z,42.805,6.029,13.2996,4.60045,2471.874,2017-10-02T04:04:43Z
2017-10-02T02:04:54Z,42.805,6.029,13.2996,4.60049,2471.912,2017-10-02T04:06:17Z
2017-10-02T02:06:29Z,42.805,6.029,13.2986,4.60077,2471.912,2017-10-02T04:07:52Z
2017-10-02T02:08:04Z,42.805,6.029,13.2995,4.60104,2471.912,2017-10-02T04:09:27Z
2017-10-02T02:09:38Z,42.805,6.029,13.2980,4.60104,2471.897,2017-10-02T04:11:02Z
2017-10-02T02:11:13Z,42.805,6.029,13.2965,4.60047,2471.889,2017-10-02T04:12:37Z
2017-10-02T02:12:48Z,42.805,6.029,13.2964,4.60089,2471.889,2017-10-02T04:14:12Z
2017-10-02T02:14:23Z,42.805,6.029,13.2974,4.60057,2471.874,2017-10-02T04:15:46Z
2017-10-02T02:15:58Z,42.805,6.029,13.2984,4.60056,2471.874,2017-10-02T04:17:21Z
2017-10-02T02:17:33Z,42.805,6.029,13.2997,4.60090,2471.912,2017-10-02T04:18:56Z
2017-10-02T02:19:07Z,42.805,6.029,13.2973,4.60044,2471.889,2017-10-02T04:20:31Z
2017-10-02T02:20:42Z,42.805,6.029,13.2976,4.60070,2471.912,2017-10-02T04:22:06Z
2017-10-02T02:22:17Z,42.805,6.029,13.2975,4.60038,2471.957,2017-10-02T04:23:41Z
2017-10-02T02:23:52Z,42.805,6.029,13.2972,4.60032,2471.934,2017-10-02T04:25:15Z
2017-10-02T02:25:27Z,42.805,6.029,13.2969,4.60028,2471.934,2017-10-02T04:26:50Z
2017-10-02T02:27:02Z,42.805,6.029,13.2973,4.60077,2471.934,2017-10-02T04:28:25Z
2017-10-02T02:28:36Z,42.805,6.029,13.2971,4.60047,2471.971,2017-10-02T04:30:00Z
2017-10-02T02:30:11Z,42.805,6.029,13.2964,4.60015,2471.912,2017-10-02T04:31:35Z
2017-10-02T02:31:46Z,42.805,6.029,13.2966,4.60006,2471.912,2017-10-02T04:33:10Z
2017-10-02T02:33:21Z,42.805,6.029,13.2962,4.60008,2471.912,2017-10-02T04:34:44Z
2017-10-02T02:34:56Z,42.805,6.029,13.2968,4.60005,2471.934,2017-10-02T04:36:19Z
2017-10-02T02:36:31Z,42.805,6.029,13.2968,4.60026,2471.897,2017-10-02T04:37:54Z
2017-10-02T02:38:05Z,42.805,6.029,13.2970,4.60049,2471.934,2017-10-02T04:39:29Z
2017-10-02T02:39:40Z,42.805,6.029,13.2980,4.60070,2471.897,2017-10-02T04:41:04Z
2017-10-02T02:41:15Z,42.805,6.029,13.2985,4.60066,2471.934,2017-10-02T04:42:39Z
2017-10-02T02:42:50Z,42.805,6.029,13.2982,4.60063,2471.927,2017-10-02T04:44:13Z
2017-10-02T02:44:25Z,42.805,6.029,13.2977,4.60054,2471.957,2017-10-02T04:45:48Z
2017-10-02T02:46:00Z,42.805,6.029,13.2972,4.60048,2471.912,2017-10-02T04:47:23Z
2017-10-02T02:47:34Z,42.805,6.029,13.2980,4.60039,2471.919,2017-10-02T04:48:58Z
2017-10-02T02:49:09Z,42.805,6.029,13.2962,4.60032,2471.912,2017-10-02T04:50:33Z
2017-10-02T02:50:44Z,42.805,6.029,13.2978,4.60060,2471.912,2017-10-02T04:52:08Z
2017-10-02T02:52:19Z,42.805,6.029,13.2957,4.60063,2471.934,2017-10-02T04:53:42Z
2017-10-02T02:53:54Z,42.805,6.029,13.2978,4.60044,2471.912,2017-10-02T04:55:17Z
2017-10-02T02:55:29Z,42.805,6.029,13.2968,4.60086,2471.874,2017-10-02T04:56:52Z
2017-10-02T02:57:03Z,42.805,6.029,13.2970,4.60057,2471.912,2017-10-02T04:58:27Z
2017-10-02T02:58:38Z,42.805,6.029,13.2983,4.60077,2471.897,2017-10-02T05:00:02Z
2017-10-02T03:00:13Z,42.805,6.029,13.2970,4.60039,2471.934,2017-10-02T05:01:37Z
2017-10-02T03:01:48Z,42.805,6.029,13.2972,4.60088,2471.934,2017-10-02T05:03:11Z
2017-10-02T03:03:23Z,42.805,6.029,13.2957,4.60030,2471.934,2017-10-02T05:04:46Z
2017-10-02T03:04:57Z,42.805,6.029,13.2975,4.60061,2471.934,2017-10-02T05:06:21Z
2017-10-02T03:06:32Z,42.805,6.029,13.2965,4.60037,2471.919,2017-10-02T05:07:56Z
2017-10-02T03:08:07Z,42.805,6.029,13.2978,4.60027,2471.957,2017-10-02T05:09:31Z
2017-10-02T03:09:42Z,42.805,6.029,13.3001,4.60015,2471.971,2017-10-02T05:11:05Z
2017-10-02T03:11:17Z,42.805,6.029,13.2961,4.60060,2471.942,2017-10-02T05:12:40Z
2017-10-02T03:12:52Z,42.805,6.029,13.2963,4.60052,2471.934,2017-10-02T05:14:15Z
2017-10-02T03:14:26Z,42.805,6.029,13.2972,4.60033,2471.919,2017-10-02T05:15:50Z
2017-10-02T03:16:01Z,42.805,6.029,13.2964,4.60029,2471.957,2017-10-02T05:17:25Z
2017-10-02T03:17:36Z,42.805,6.029,13.2956,4.60038,2471.942,2017-10-02T05:19:00Z
2017-10-02T03:19:11Z,42.805,6.029,13.2957,4.60059,2471.934,2017-10-02T05:20:34Z
2017-10-02T03:20:46Z,42.805,6.029,13.2957,4.60026,2471.912,2017-10-02T05:22:09Z
2017-10-02T03:22:21Z,42.805,6.029,13.2975,4.60028,2471.912,2017-10-02T05:23:44Z
2017-10-02T03:23:55Z,42.805,6.029,13.2966,4.60044,2471.957,2017-10-02T05:25:19Z
2017-10-02T03:25:30Z,42.805,6.029,13.2960,4.60004,2471.934,2017-10-02T05:26:54Z
2017-10-02T03:27:05Z,42.805,6.029,13.2968,4.60018,2471.934,2017-10-02T05:28:29Z
2017-10-02T03:28:40Z,42.805,6.029,13.2964,4.60018,2471.957,2017-10-02T05:30:03Z
2017-10-02T03:30:15Z,42.805,6.029,13.2962,4.60001,2471.957,2017-10-02T05:31:38Z
2017-10-02T03:31:50Z,42.805,6.029,13.2954,4.60034,2471.934,2017-10-02T05:33:13Z
2017-10-02T03:33:24Z,42.805,6.029,13.2967,4.60029,2471.934,2017-10-02T05:34:48Z
2017-10-02T03:34:59Z,42.805,6.029,13.2962,4.60038,2471.934,2017-10-02T05:36:23Z
2017-10-02T03:36:34Z,42.805,6.029,13.2961,4.60038,2471.934,2017-10-02T05:37:58Z
2017-10-02T03:38:09Z,42.805,6.029,13.2970,4.60048,2471.957,2017-10-02T05:39:32Z
2017-10-02T03:39:44Z,42.805,6.029,13.2970,4.60031,2471.957,2017-10-02T05:41:07Z
2017-10-02T03:41:19Z,42.805,6.029,13.2978,4.60030,2471.919,2017-10-02T05:42:42Z
2017-10-02T03:42:53Z,42.805,6.029,13.2982,4.60040,2471.964,2017-10-02T05:44:17Z
2017-10-02T03:44:28Z,42.805,6.029,13.2970,4.60042,2471.934,2017-10-02T05:45:52Z
2017-10-02T03:46:03Z,42.805,6.029,13.2959,4.60055,2471.912,2017-10-02T05:47:27Z
2017-10-02T03:47:38Z,42.805,6.029,13.2973,4.60060,2471.934,2017-10-02T05:49:01Z
2017-10-02T03:49:13Z,42.805,6.029,13.2982,4.60054,2471.979,2017-10-02T05:50:36Z
2017-10-02T03:50:48Z,42.805,6.029,13.2978,4.60012,2471.957,2017-10-02T05:52:11Z
2017-10-02T03:52:22Z,42.805,6.029,13.2970,4.60032,2471.957,2017-10-02T05:53:46Z
2017-10-02T03:53:57Z,42.805,6.029,13.2962,4.60038,2471.957,2017-10-02T05:55:21Z
2017-10-02T03:55:32Z,42.805,6.029,13.2960,4.60023,2471.934,2017-10-02T05:56:56Z
2017-10-02T03:57:07Z,42.805,6.029,13.2965,4.60036,2471.964,2017-10-02T05:58:30Z
2017-10-02T03:58:42Z,42.805,6.029,13.2965,4.60029,2471.957,2017-10-02T06:00:05Z
2017-10-02T04:00:17Z,42.805,6.029,13.2964,4.60034,2471.934,2017-10-02T06:01:40Z
2017-10-02T04:01:51Z,42.805,6.029,13.2964,4.60018,2471.942,2017-10-02T06:03:15Z
2017-10-02T04:03:26Z,42.805,6.029,13.2962,4.60033,2471.957,2017-10-02T06:04:50Z
2017-10-02T04:05:01Z,42.805,6.029,13.2975,4.60066,2471.934,2017-10-02T06:06:25Z
2017-10-02T04:06:36Z,42.805,6.029,13.2979,4.60032,2471.934,2017-10-02T06:07:59Z
2017-10-02T04:08:11Z,42.805,6.029,13.2968,4.60044,2471.957,2017-10-02T06:09:34Z
2017-10-02T04:09:46Z,42.805,6.029,13.2962,4.60038,2471.942,2017-10-02T06:11:09Z
2017-10-02T04:11:20Z,42.805,6.029,13.2962,4.60042,2471.979,2017-10-02T06:12:44Z
2017-10-02T04:12:55Z,42.805,6.029,13.2970,4.60028,2471.957,2017-10-02T06:14:19Z
2017-10-02T04:14:30Z,42.805,6.029,13.2970,4.60026,2471.957,2017-10-02T06:15:54Z
2017-10-02T04:16:05Z,42.805,6.029,13.2973,4.60030,2471.957,2017-10-02T06:17:28Z
2017-10-02T04:17:40Z,42.805,6.029,13.2960,4.60010,2471.957,2017-10-02T06:19:03Z
2017-10-02T04:19:15Z,42.805,6.029,13.2975,4.60001,2471.979,2017-10-02T06:20:38Z
2017-10-02T04:20:49Z,42.805,6.029,13.2948,4.60021,2471.971,2017-10-02T06:22:13Z
2017-10-02T04:22:24Z,42.805,6.029,13.2956,4.60024,2471.934,2017-10-02T06:23:48Z
2017-10-02T04:23:59Z,42.805,6.029,13.2958,4.60004,2471.979,2017-10-02T06:25:23Z
2017-10-02T04:25:34Z,42.805,6.029,13.2970,4.59996,2471.957,2017-10-02T06:26:57Z
2017-10-02T04:27:09Z,42.805,6.029,13.2952,4.60011,2471.957,2017-10-02T06:28:32Z
2017-10-02T04:28:44Z,42.805,6.029,13.2954,4.60023,2471.964,2017-10-02T06:30:07Z
2017-10-02T04:30:18Z,42.805,6.029,13.2963,4.60023,2471.957,2017-10-02T06:31:42Z
2017-10-02T04:31:53Z,42.805,6.029,13.2964,4.60023,2471.957,2017-10-02T06:33:17Z
2017-10-02T04:33:28Z,42.805,6.029,13.2958,4.60022,2471.957,2017-10-02T06:34:52Z
2017-10-02T04:35:03Z,42.805,6.029,13.2960,4.60049,2471.979,2017-10-02T06:36:26Z
2017-10-02T04:36:38Z,42.805,6.029,13.2967,4.60052,2471.957,2017-10-02T06:38:01Z
2017-10-02T04:38:13Z,42.805,6.029,13.2971,4.60042,2471.942,2017-10-02T06:39:36Z
2017-10-02T04:39:47Z,42.805,6.029,13.2979,4.60039,2471.979,2017-10-02T06:41:11Z
2017-10-02T04:41:22Z,42.805,6.029,13.2964,4.60043,2471.957,2017-10-02T06:42:46Z
2017-10-02T04:42:57Z,42.805,6.029,13.2959,4.60047,2471.957,2017-10-02T06:44:21Z
2017-10-02T04:44:32Z,42.805,6.029,13.2956,4.60067,2471.957,2017-10-02T06:45:55Z
2017-10-02T04:46:07Z,42.805,6.029,13.2961,4.60038,2471.964,2017-10-02T06:47:30Z
2017-10-02T04:47:42Z,42.805,6.029,13.2963,4.60040,2471.979,2017-10-02T06:49:05Z
2017-10-02T04:49:16Z,42.805,6.029,13.2960,4.60026,2472.002,2017-10-02T06:50:40Z
2017-10-02T04:50:51Z,42.805,6.029,13.2965,4.60011,2472.002,2017-10-02T06:52:15Z
2017-10-02T04:52:26Z,42.805,6.029,13.2968,4.60022,2471.979,2017-10-02T06:53:50Z
2017-10-02T04:54:01Z,42.805,6.029,13.2970,4.60022,2471.979,2017-10-02T06:55:24Z
2017-10-02T04:55:36Z,42.805,6.029,13.2971,4.60037,2471.979,2017-10-02T06:56:59Z
2017-10-02T04:57:11Z,42.805,6.029,13.2968,4.60040,2471.957,2017-10-02T06:58:34Z
2017-10-02T04:58:45Z,42.805,6.029,13.2955,4.60031,2471.942,2017-10-02T07:00:09Z
2017-10-02T05:00:20Z,42.805,6.029,13.2961,4.60034,2471.957,2017-10-02T07:01:44Z
2017-10-02T05:01:55Z,42.805,6.029,13.2967,4.60020,2471.979,2017-10-02T07:03:18Z
2017-10-02T05:03:30Z,42.805,6.029,13.2975,4.60011,2471.942,2017-10-02T07:04:53Z
2017-10-02T05:05:05Z,42.805,6.029,13.2977,4.60015,2471.957,2017-10-02T07:06:28Z
2017-10-02T05:06:39Z,42.805,6.029,13.2961,4.60018,2471.979,2017-10-02T07:08:03Z
2017-10-02T05:08:14Z,42.805,6.029,13.2961,4.60055,2471.979,2017-10-02T07:09:38Z
2017-10-02T05:09:49Z,42.805,6.029,13.2966,4.60040,2471.942,2017-10-02T07:11:13Z
2017-10-02T05:11:24Z,42.805,6.029,13.2971,4.60060,2471.957,2017-10-02T07:12:47Z
2017-10-02T05:12:59Z,42.805,6.029,13.2975,4.60038,2471.957,2017-10-02T07:14:22Z
2017-10-02T05:14:34Z,42.805,6.029,13.2984,4.60065,2471.957,2017-10-02T07:15:57Z
2017-10-02T05:16:08Z,42.805,6.029,13.2988,4.60104,2471.919,2017-10-02T07:17:32Z
2017-10-02T05:17:43Z,42.805,6.029,13.2989,4.60055,2471.957,2017-10-02T07:19:07Z
2017-10-02T05:19:18Z,42.805,6.029,13.2994,4.60062,2471.964,2017-10-02T07:20:42Z
2017-10-02T05:20:53Z,42.805,6.029,13.3008,4.60046,2471.957,2017-10-02T07:22:16Z
2017-10-02T05:22:28Z,42.805,6.029,13.3012,4.60038,2471.942,2017-10-02T07:23:51Z
2017-10-02T05:24:03Z,42.805,6.029,13.3008,4.60007,2471.957,2017-10-02T07:25:26Z
2017-10-02T05:25:37Z,42.805,6.029,13.3006,4.60012,2471.942,2017-10-02T07:27:01Z
2017-10-02T05:27:12Z,42.805,6.029,13.2992,4.60028,2471.957,2017-10-02T07:28:36Z
2017-10-02T05:28:47Z,42.805,6.029,13.2985,4.60042,2471.979,2017-10-02T07:30:11Z
2017-10-02T05:30:22Z,42.805,6.029,13.2994,4.60056,2471.957,2017-10-02T07:31:45Z
2017-10-02T05:31:57Z,42.805,6.029,13.2991,4.60040,2471.957,2017-10-02T07:33:20Z
2017-10-02T05:33:32Z,42.805,6.029,13.2998,4.60047,2471.994,2017-10-02T07:34:55Z
2017-10-02T05:35:06Z,42.805,6.029,13.2975,4.60053,2471.942,2017-10-02T07:36:30Z
2017-10-02T05:36:41Z,42.805,6.029,13.2979,4.60051,2471.964,2017-10-02T07:38:05Z
2017-10-02T05:38:16Z,42.805,6.029,13.2962,4.60073,2471.979,2017-10-02T07:39:40Z
2017-10-02T05:39:51Z,42.805,6.029,13.2975,4.60052,2471.979,2017-10-02T07:41:14Z
2017-10-02T05:41:26Z,42.805,6.029,13.2982,4.60075,2471.957,2017-10-02T07:42:49Z
2017-10-02T05:43:01Z,42.805,6.029,13.2986,4.60025,2471.919,2017-10-02T07:44:24Z
2017-10-02T05:44:35Z,42.805,6.029,13.3009,4.60015,2471.934,2017-10-02T07:45:59Z
2017-10-02T05:46:10Z,42.805,6.029,13.2995,4.60000,2471.957,2017-10-02T07:47:34Z
2017-10-02T05:47:45Z,42.805,6.029,13.2998,4.60037,2471.979,2017-10-02T07:49:09Z
2017-10-02T05:49:20Z,42.805,6.029,13.3005,4.60031,2471.957,2017-10-02T07:50:43Z
2017-10-02T05:50:55Z,42.805,6.029,13.3016,4.60050,2471.957,2017-10-02T07:52:18Z
2017-10-02T05:52:30Z,42.805,6.029,13.3014,4.60036,2471.934,2017-10-02T07:53:53Z
2017-10-02T05:54:04Z,42.805,6.029,13.3012,4.60015,2471.979,2017-10-02T07:55:28Z
2017-10-02T05:55:39Z,42.805,6.029,13.3015,4.60057,2471.957,2017-10-02T07:57:03Z
2017-10-02T05:57:14Z,42.805,6.029,13.3020,4.60044,2471.957,2017-10-02T07:58:38Z
2017-10-02T05:58:49Z,42.805,6.029,13.3011,4.60036,2471.957,2017-10-02T08:00:12Z
2017-10-02T06:00:24Z,42.805,6.029,13.3015,4.60071,2471.942,2017-10-02T08:01:47Z
2017-10-02T06:01:59Z,42.805,6.029,13.3019,4.60057,2471.979,2017-10-02T08:03:22Z
2017-10-02T06:03:33Z,42.805,6.029,13.3023,4.60029,2471.942,2017-10-02T08:04:57Z
2017-10-02T06:05:08Z,42.805,6.029,13.3029,4.60030,2471.957,2017-10-02T08:06:32Z
2017-10-02T06:06:43Z,42.805,6.029,13.3037,4.60038,2471.934,2017-10-02T08:08:07Z
2017-10-02T06:08:18Z,42.805,6.029,13.3010,4.60015,2471.942,2017-10-02T08:09:41Z
2017-10-02T06:09:53Z,42.805,6.029,13.3003,4.59995,2471.934,2017-10-02T08:11:16Z
2017-10-02T06:11:28Z,42.805,6.029,13.3006,4.60028,2471.942,2017-10-02T08:12:51Z
2017-10-02T06:13:02Z,42.805,6.029,13.3016,4.60045,2471.934,2017-10-02T08:14:26Z
2017-10-02T06:14:37Z,42.805,6.029,13.2974,4.60042,2471.934,2017-10-02T08:16:01Z
2017-10-02T06:16:12Z,42.805,6.029,13.3009,4.60032,2471.979,2017-10-02T08:17:36Z
2017-10-02T06:17:47Z,42.805,6.029,13.2985,4.60006,2471.934,2017-10-02T08:19:10Z
2017-10-02T06:19:22Z,42.805,6.029,13.2994,4.60031,2471.934,2017-10-02T08:20:45Z
2017-10-02T06:20:57Z,42.805,6.029,13.2956,4.60065,2471.979,2017-10-02T08:22:20Z
2017-10-02T06:22:31Z,42.805,6.029,13.2980,4.60016,2471.957,2017-10-02T08:23:55Z
2017-10-02T06:24:06Z,42.805,6.029,13.2996,4.60024,2471.957,2017-10-02T08:25:30Z
2017-10-02T06:25:41Z,42.805,6.029,13.2960,4.60026,2471.957,2017-10-02T08:27:05Z
2017-10-02T06:27:16Z,42.805,6.029,13.2976,4.60004,2471.994,2017-10-02T08:28:39Z
2017-10-02T06:28:51Z,42.805,6.029,13.2991,4.60003,2471.934,2017-10-02T08:30:14Z
2017-10-02T06:30:26Z,42.805,6.029,13.3002,4.60032,2471.934,2017-10-02T08:31:49Z
2017-10-02T06:32:00Z,42.805,6.029,13.2995,4.60014,2471.934,2017-10-02T08:33:24Z
2017-10-02T06:33:35Z,42.805,6.029,13.3010,4.60047,2471.957,2017-10-02T08:34:59Z
2017-10-02T06:35:10Z,42.805,6.029,13.3013,4.60012,2471.934,2017-10-02T08:36:34Z
2017-10-02T06:36:45Z,42.805,6.029,13.3015,4.60035,2471.912,2017-10-02T08:38:08Z
2017-10-02T06:38:20Z,42.805,6.029,13.3005,4.60007,2471.957,2017-10-02T08:39:43Z
2017-10-02T06:39:55Z,42.805,6.029,13.3019,4.59989,2471.957,2017-10-02T08:41:18Z
2017-10-02T06:41:29Z,42.805,6.029,13.3012,4.59998,2471.934,2017-10-02T08:42:53Z
2017-10-02T06:43:04Z,42.805,6.029,13.2986,4.60013,2471.957,2017-10-02T08:44:28Z
2017-10-02T06:44:39Z,42.805,6.029,13.2966,4.60044,2471.934,2017-10-02T08:46:03Z
2017-10-02T06:46:14Z,42.805,6.029,13.2972,4.60036,2471.957,2017-10-02T08:47:37Z
2017-10-02T06:47:49Z,42.805,6.029,13.2970,4.60067,2471.957,2017-10-02T08:49:12Z
2017-10-02T06:49:23Z,42.805,6.029,13.2989,4.60074,2471.934,2017-10-02T08:50:47Z
2017-10-02T06:50:58Z,42.805,6.029,13.2994,4.60077,2471.934,2017-10-02T08:52:22Z
2017-10-02T06:52:33Z,42.805,6.029,13.2982,4.60088,2471.934,2017-10-02T08:53:57Z
2017-10-02T06:54:08Z,42.805,6.029,13.2967,4.60080,2471.934,2017-10-02T08:55:32Z
2017-10-02T06:55:43Z,42.805,6.029,13.2966,4.60063,2471.957,2017-10-02T08:57:06Z
2017-10-02T06:57:18Z,42.805,6.029,13.2991,4.60020,2471.912,2017-10-02T08:58:41Z
2017-10-02T06:58:52Z,42.805,6.029,13.2998,4.60010,2471.912,2017-10-02T09:00:16Z
2017-10-02T07:00:27Z,42.805,6.029,13.3004,4.59987,2471.919,2017-10-02T09:01:51Z
2017-10-02T07:02:02Z,42.805,6.029,13.3011,4.59987,2471.927,2017-10-02T09:03:26Z
2017-10-02T07:03:37Z,42.805,6.029,13.3015,4.60017,2471.934,2017-10-02T09:05:00Z
2017-10-02T07:05:12Z,42.805,6.029,13.3004,4.60021,2471.934,2017-10-02T09:06:35Z
2017-10-02T07:06:47Z,42.805,6.029,13.2993,4.60023,2471.934,2017-10-02T09:08:10Z
2017-10-02T07:08:21Z,42.805,6.029,13.2979,4.60021,2471.912,2017-10-02T09:09:45Z
2017-10-02T07:09:56Z,42.805,6.029,13.2979,4.60005,2471.934,2017-10-02T09:11:20Z
2017-10-02T07:11:31Z,42.805,6.029,13.2981,4.60007,2471.934,2017-10-02T09:12:55Z
2017-10-02T07:13:06Z,42.805,6.029,13.2986,4.60001,2471.912,2017-10-02T09:14:29Z
2017-10-02T07:14:41Z,42.805,6.029,13.2985,4.60003,2471.912,2017-10-02T09:16:04Z
2017-10-02T07:16:16Z,42.805,6.029,13.2986,4.59994,2471.919,2017-10-02T09:17:39Z
2017-10-02T07:17:50Z,42.805,6.029,13.2982,4.60004,2471.949,2017-10-02T09:19:14Z
2017-10-02T07:19:25Z,42.805,6.029,13.2966,4.60020,2471.889,2017-10-02T09:20:49Z
2017-10-02T07:21:00Z,42.805,6.029,13.2960,4.60029,2471.934,2017-10-02T09:22:24Z
2017-10-02T07:22:35Z,42.805,6.029,13.2966,4.60009,2471.934,2017-10-02T09:23:58Z
2017-10-02T07:24:10Z,42.805,6.029,13.2968,4.60015,2471.912,2017-10-02T09:25:33Z
2017-10-02T07:25:45Z,42.805,6.029,13.2957,4.59992,2471.912,2017-10-02T09:27:08Z
2017-10-02T07:27:19Z,42.805,6.029,13.2960,4.60018,2471.957,2017-10-02T09:28:43Z
2017-10-02T07:28:54Z,42.805,6.029,13.2962,4.60000,2471.897,2017-10-02T09:30:18Z
2017-10-02T07:30:29Z,42.805,6.029,13.2964,4.60001,2471.889,2017-10-02T09:31:53Z
2017-10-02T07:32:04Z,42.805,6.029,13.2960,4.60021,2471.934,2017-10-02T09:33:27Z
2017-10-02T07:33:39Z,42.805,6.029,13.2966,4.60051,2471.957,2017-10-02T09:35:02Z
2017-10-02T07:35:14Z,42.805,6.029,13.2977,4.60029,2471.934,2017-10-02T09:36:37Z
2017-10-02T07:36:48Z,42.805,6.029,13.2973,4.60014,2471.919,2017-10-02T09:38:12Z
2017-10-02T07:38:23Z,42.805,6.029,13.2974,4.59995,2471.919,2017-10-02T09:39:47Z
2017-10-02T07:39:58Z,42.805,6.029,13.2974,4.59979,2471.912,2017-10-02T09:41:22Z
2017-10-02T07:41:33Z,42.805,6.029,13.2973,4.59977,2471.912,2017-10-02T09:42:56Z
2017-10-02T07:43:08Z,42.805,6.029,13.2971,4.59985,2471.912,2017-10-02T09:44:31Z
2017-10-02T07:44:43Z,42.805,6.029,13.2974,4.60011,2471.934,2017-10-02T09:46:06Z